TimeMDT,TemperatureF,Dew PointF,Humidity,Sea Level PressureIn,VisibilityMPH,Wind Direction,Wind SpeedMPH,Gust SpeedMPH,PrecipitationIn,Events,Conditions,WindDirDegrees,DateUTC
12:53 AM,36.0,21.9,57,29.86,10.0,NNE,5.8,-,N/A,,Clear,30,2013-03-27 06:53:00
1:53 AM,30.9,21.0,67,29.87,10.0,NW,3.5,-,N/A,,Clear,310,2013-03-27 07:53:00
2:53 AM,30.9,23.0,72,29.90,10.0,West,8.1,-,N/A,,Clear,280,2013-03-27 08:53:00
3:53 AM,32.0,25.0,75,29.91,10.0,NNW,8.1,-,N/A,,Clear,330,2013-03-27 09:53:00
4:53 AM,30.9,25.0,79,29.94,10.0,North,6.9,-,N/A,,Clear,350,2013-03-27 10:53:00
5:53 AM,30.0,24.1,79,29.96,10.0,NNW,5.8,-,N/A,,Clear,330,2013-03-27 11:53:00
6:53 AM,27.0,23.0,85,30.00,8.0,SSW,3.5,-,N/A,,Clear,210,2013-03-27 12:53:00
7:53 AM,33.1,25.0,72,30.02,9.0,West,6.9,-,N/A,,Clear,280,2013-03-27 13:53:00
8:53 AM,39.9,26.1,58,30.03,10.0,WNW,8.1,-,N/A,,Clear,300,2013-03-27 14:53:00
9:53 AM,46.0,24.1,42,30.01,10.0,North,5.8,-,N/A,,Clear,360,2013-03-27 15:53:00
10:53 AM,52.0,25.0,35,30.02,10.0,North,8.1,-,N/A,,Clear,10,2013-03-27 16:53:00
11:53 AM,55.9,26.1,32,30.02,10.0,NNE,6.9,-,N/A,,Clear,30,2013-03-27 17:53:00
12:53 PM,60.1,27.0,28,30.01,10.0,East,10.4,-,N/A,,Clear,100,2013-03-27 18:53:00
1:53 PM,62.1,25.0,24,30.01,10.0,ESE,8.1,-,N/A,,Clear,110,2013-03-27 19:53:00
2:53 PM,63.0,24.1,23,30.00,10.0,East,5.8,-,N/A,,Clear,80,2013-03-27 20:53:00
3:53 PM,64.0,24.1,22,29.98,10.0,East,8.1,17.3,N/A,,Clear,100,2013-03-27 21:53:00
4:53 PM,64.0,25.0,23,29.97,10.0,ENE,12.7,-,N/A,,Clear,70,2013-03-27 22:53:00
5:53 PM,61.0,26.1,26,29.99,10.0,East,15.0,-,N/A,,Clear,100,2013-03-27 23:53:00
6:53 PM,57.0,27.0,32,30.03,10.0,East,10.4,-,N/A,,Clear,100,2013-03-28 00:53:00
7:53 PM,52.0,28.0,40,30.05,10.0,East,9.2,-,N/A,,Clear,100,2013-03-28 01:53:00
8:53 PM,45.0,28.9,53,30.08,10.0,East,5.8,-,N/A,,Clear,100,2013-03-28 02:53:00
9:53 PM,42.1,28.9,60,30.09,10.0,East,3.5,-,N/A,,Clear,90,2013-03-28 03:53:00
10:53 PM,41.0,28.9,62,30.09,10.0,ESE,3.5,-,N/A,,Clear,110,2013-03-28 04:53:00
11:53 PM,39.0,28.9,67,30.10,10.0,ENE,3.5,-,N/A,,Clear,70,2013-03-28 05:53:00